FW6982 Weather Reports


time (UTC)temp
C
wind
direction
speed
KPH
gust
KPH
rain 1hr
cm
rain 24hr
cm
rain mn
cm
humidity
%
barometer
mb
20260906071539 -17 0.0 0.0 0.00 0.00 0.00 1013.5
20260906070041 -17 0.0 0.0 0.00 0.00 0.00 1013.6
20260906064543 -17 0.0 0.0 0.00 0.00 0.00 1013.7
20260906063041 -17 0.0 0.0 0.00 0.00 0.00 1013.7
20260906061542 -17 0.0 0.0 0.00 0.00 0.00 1013.9
20260906060039 -17 0.0 0.0 0.00 0.00 0.00 1014.3
20260906054539 -17 0.0 0.0 0.00 0.00 0.00 1014.4
20260906053041 -17 0.0 0.0 0.00 0.00 0.00 1014.7
20260906051541 -17 0.0 0.0 0.00 0.00 0.00 1014.9
20260906050045 -17 0.0 0.0 0.00 0.00 0.00 1014.9
20260906044542 -17 0.0 0.0 0.00 0.00 0.00 1014.9
20260906043040 -17 0.0 0.0 0.00 0.00 0.00 1014.9
20260906041541 -17 0.0 0.0 0.00 0.00 0.00 1014.3
20260906040041 -17 0.0 0.0 0.00 0.00 0.00 1014.5
20260906034538 -17 0.0 0.0 0.00 0.00 0.00 1014.9
20260906033038 -17 0.0 0.0 0.00 0.00 0.00 1015.1
20260906031540 -17 0.0 0.0 0.00 0.00 0.00 1015.2
20260906030043 -17 0.0 0.0 0.00 0.00 0.00 1015.0
20260906024541 -17 0.0 0.0 0.00 0.00 0.00 1015.0
20260906023046 -17 0.0 0.0 0.00 0.00 0.00 1014.8
20260906021544 -17 0.0 0.0 0.00 0.00 0.00 1014.9
20260906020039 -17 0.0 0.0 0.00 0.00 0.00 1014.7
20260906014548 -17 0.0 0.0 0.00 0.00 0.00 1014.4
20260906013045 -17 0.0 0.0 0.00 0.00 0.00 1014.3
20260906011540 -17 0.0 0.0 0.00 0.00 0.00 1014.4
20260906010041 -17 0.0 0.0 0.00 0.00 0.00 1014.4
20260906004537 -17 0.0 0.0 0.00 0.00 0.00 1014.2
20260906003037 -17 0.0 0.0 0.00 0.00 0.00 1014.1
20260906001539 -17 0.0 0.0 0.00 0.00 0.00 1014.0
20260906000041 24 0.0 0.0 0.00 0.00 0.00 87 1013.7
20260905234540 24 0 0.0 0.0 0.00 0.00 0.00 86 1014.1
20260905233037 25 0 0.0 0.0 0.00 0.00 0.00 86 1013.9
20260905231537 24 0 0.0 0.0 0.00 0.00 0.00 86 1013.7
20260905230042 25 0 0.0 0.0 0.00 0.00 0.00 85 1013.6
20260905224535 25 0 0.0 0.0 0.00 0.00 0.00 84 1013.5
20260905223039 26 0 0.0 0.0 0.00 0.00 0.00 82 1013.5
20260905221541 25 0 0.0 0.0 0.00 0.00 0.00 85 1013.6
20260905220043 25 0 0.0 0.0 0.00 0.00 0.00 84 1013.7
20260905214542 25 0 0.0 0.0 0.00 0.00 0.00 84 1013.6
20260905213040 24 0 0.0 0.0 0.00 0.00 0.00 84 1013.7
20260905211542 24 0 0.0 0.0 0.00 0.00 0.00 85 1014.3
20260905210041 24 0 0.0 1.6 0.00 0.00 0.00 85 1015.0
20260905204542 23 0 0.0 1.6 0.00 0.00 0.00 85 1014.7
20260905203041 23 0 0.0 3.2 0.00 0.00 0.00 86 1014.6
20260905201541 22 0 0.0 4.8 0.00 0.00 0.00 86 1014.9
20260905200047 22 44 3.2 6.4 0.00 0.00 0.00 86 1015.0
20260905194547 22 38 1.6 6.4 0.00 0.00 0.00 86 1015.3
20260905193040 22 0 0.0 8.0 0.00 0.00 0.00 85 1016.0
20260905191545 22 0 0.0 3.2 0.00 0.00 0.00 83 1015.8
20260905190050 23 124 0.0 6.4 0.00 0.00 0.00 80 1016.2
20260905184547 23 0 0.0 9.7 0.00 0.00 0.00 79 1015.6
20260905183044 25 30 4.8 24.1 0.00 0.00 0.00 71 1015.7
20260905181539 31 321 8.0 27.4 0.00 0.00 0.00 53 1016.2
20260905180042 32 0 0.0 1.6 0.00 0.00 0.00 63 1015.6
20260905174543 33 165 0.0 6.4 0.00 0.00 0.00 53 1015.6
20260905173041 34 90 1.6 9.7 0.00 0.00 0.00 52 1015.5
20260905171547 34 217 1.6 6.4 0.00 0.00 0.00 51 1015.4
20260905170043 33 0 1.6 11.3 0.00 0.00 0.00 50 1015.6
20260905164542 34 224 1.6 6.4 0.00 0.00 0.00 53 1016.0
20260905163044 33 64 1.6 6.4 0.00 0.00 0.00 51 1016.2
20260905161540 33 52 3.2 6.4 0.00 0.00 0.00 53 1016.3
20260905160044 33 211 3.2 9.7 0.00 0.00 0.00 55 1016.3
20260905154543 32 159 0.0 4.8 0.00 0.00 0.00 61 1016.4
20260905153055 32 0 1.6 4.8 0.00 0.00 0.00 64 1016.4
20260905151542 31 230 3.2 6.4 0.00 0.00 0.00 60 1016.3
20260905150044 31 144 0.0 3.2 0.00 0.00 0.00 70 1016.6
20260905144542 30 0 0.0 4.8 0.00 0.00 0.00 69 1016.6
20260905143041 29 0 0.0 4.8 0.00 0.00 0.00 70 1016.6
20260905141554 28 0 0.0 0.0 0.00 0.00 0.00 76 1016.7
20260905140042 27 0 0.0 0.0 0.00 0.00 0.00 77 1016.8
20260905134539 26 0 0.0 0.0 0.00 0.00 0.00 81 1016.9
20260905133041 25 0 0.0 0.0 0.00 0.00 0.00 82 1016.8
20260905131541 25 0 0.0 0.0 0.00 0.00 0.00 86 1016.9
20260905130042 -17 0.0 0.0 0.00 0.00 0.00 1017.0
20260905124541 -17 0.0 0.0 0.00 0.00 0.00 1016.7
20260905123038 -17 0.0 0.0 0.00 0.00 0.00 1016.4
20260905121539 -17 0.0 0.0 0.00 0.00 0.00 1016.3
20260905120041 -17 0.0 0.0 0.00 0.00 0.00 1016.3
20260905114548 -17 0.0 0.0 0.00 0.00 0.00 1016.1
20260905113043 -17 0.0 0.0 0.00 0.00 0.00 1015.9
20260905111544 -17 0.0 0.0 0.00 0.00 0.00 1015.9
20260905110036 -17 0.0 0.0 0.00 0.00 0.00 1015.6
20260905104544 -17 0.0 0.0 0.00 0.00 0.00 1015.5
20260905103043 -17 0.0 0.0 0.00 0.00 0.00 1015.6
20260905101540 -17 0.0 0.0 0.00 0.00 0.00 1015.1
20260905100041 -17 0.0 0.0 0.00 0.00 0.00 1015.2
20260905094540 -17 0.0 0.0 0.00 0.00 0.00 1015.3
20260905093040 -17 0.0 0.0 0.00 0.00 0.00 1015.4
20260905091539 -17 0.0 0.0 0.00 0.00 0.00 1015.3
20260905084542 -17 0.0 0.0 0.00 0.00 0.00 1015.7
20260905083047 -17 0.0 0.0 0.00 0.00 0.00 1015.6
20260905081546 -17 0.0 0.0 0.00 0.00 0.00 1015.4
20260905080047 -17 0.0 0.0 0.00 0.00 0.00 1015.6
20260905074542 -17 0.0 0.0 0.00 0.00 0.00 1015.8
20260905073041 -17 0.0 0.0 0.00 0.00 0.00 1015.9